[[{"header":{"parameterUnit":"m.s-1","parameterCategory":1,"la1":30.2991,"la2":30.254,"lo1":-89.0895,"lo2":-89.0444,"dy":0.0017,"dx":0.0017,"nx":28,"ny":28,"refTime":"2024-05-09T09:00:00:Z","depth":0,"parameterNumber":2,"parameterNumberName":"U-component_of_WINDS"},"data":[0,0,0,0,0,0,0,0,0,0,0,0,0,0,0,0,0,0,0,0,0,0,0,0,0,0,0,0,0,0,0,0,0,0,0,0,0,0,0,0,0,0,0,0,0,0,0,0,0,0,0,0,0,0,0,0,0,0,-2.7823,-2.782,0,-2.7589,-2.7587,-2.7584,-2.7493,-2.7494,-2.7495,-2.7496,-2.7243,-2.7236,-2.7229,0,0,0,0,0,0,0,0,0,0,0,0,0,-2.8176,-2.817,-2.7823,-2.782,-2.7817,-2.759,-2.7586,-2.7583,-2.7493,-2.7494,-2.7495,-2.7496,-2.7246,-2.7237,-2.7228,0,0,0,0,0,0,0,0,0,0,0,0,0,-2.799,-2.8168,-2.7824,-2.7745,-2.7736,-2.759,-2.7586,-2.7582,-2.7493,-2.7494,-2.7495,-2.7496,-2.7249,-2.7238,-2.7227,-2.7138,0,0,-2.7193,-2.7189,0,0,0,0,0,0,0,0,-2.8001,-2.7977,-2.776,-2.775,-2.774,-2.7572,-2.7618,-2.7433,-2.7493,-2.7585,-2.7496,-2.7497,-2.7351,-2.7332,-2.7285,-2.7127,-2.7116,-2.7192,-2.7186,-2.7181,-2.7178,0,0,0,0,0,0,0,-2.8014,-2.7987,-2.773,-2.7757,-2.7744,-2.7717,-2.7691,-2.7583,-2.7464,-2.7577,-2.757,-2.7544,-2.7346,-2.7296,-2.7279,-2.7112,-2.7193,-2.7183,-2.7176,-2.7172,-2.686,-2.6859,0,0,0,0,0,0,-2.8042,-2.7998,-2.7738,-2.7723,-2.7876,-2.771,-2.7681,-2.7624,-2.7466,-2.7443,-2.7544,-2.7541,-2.7314,-2.7292,-2.7269,-2.715,-2.7181,-2.7171,-2.7164,-2.6862,-2.686,-2.6858,0,0,0,0,0,0,-2.805,-2.8019,-2.7747,-2.7859,-2.7822,-2.7702,-2.7639,-2.7619,-2.757,-2.7441,-2.7418,-2.7516,-2.7314,-2.7285,-2.7171,-2.714,-2.7166,-2.7156,-2.6864,-2.6861,-2.6859,-2.6914,0,0,0,0,0,0,-2.806,-2.8023,-2.7992,-2.7859,-2.7816,-2.7658,-2.7638,-2.7614,-2.7552,-2.7547,-2.7408,-2.7386,-2.7313,-2.7188,-2.716,-2.7125,-2.7147,-2.6866,-2.6863,-2.686,-2.6914,-2.6913,-2.6913,0,0,0,0,0,-2.8073,-2.8015,-2.7991,-2.796,-2.7776,-2.7656,-2.7631,-2.7552,-2.7551,-2.7515,-2.7431,-2.739,-2.7149,-2.7177,-2.7145,-2.7106,-2.6868,-2.6864,-2.686,-2.6914,-2.6913,-2.6913,0,0,0,0,0,0,-2.8145,-2.7997,-2.7968,-2.7867,-2.7775,-2.7641,-2.7595,-2.7555,-2.7458,-2.7457,-2.7358,-2.7327,-2.722,-2.7151,-2.7186,-2.7008,-2.7004,-2.6994,-2.7057,-2.7055,-2.7054,-2.7071,-2.7138,0,0,0,0,0,-2.815,-2.807,-2.7942,-2.7865,-2.782,-2.7716,-2.7661,-2.7607,-2.7507,-2.7466,-2.7374,-2.7274,-2.7174,-2.7111,-2.7013,-2.6904,-2.6868,-2.6861,-2.6861,-2.6861,-2.6852,-2.6782,-2.6775,-2.6846,-2.6846,-2.6846,0,0,-2.8157,-2.8066,-2.8021,-2.7877,-2.78,-2.7713,-2.7684,-2.7595,-2.7527,-2.7451,-2.7338,-2.7266,-2.7147,-2.7034,-2.6979,-2.6974,-2.6824,-2.6856,-2.6857,-2.6848,-2.6777,-2.677,-2.6765,-2.6843,-2.6844,-2.6844,0,0,-2.8126,-2.8052,-2.7977,-2.79,-2.7784,-2.7714,-2.7696,-2.7567,-2.7518,-2.7403,-2.7343,-2.7258,-2.7092,-2.7007,-2.6943,-2.6875,-2.6831,-2.6845,-2.6841,-2.6774,-2.6768,-2.6763,-2.6732,-2.6724,-2.6838,-2.6838,-2.6838,0,-2.8149,-2.8022,-2.7942,-2.7855,-2.7791,-2.7721,-2.7639,-2.7567,-2.7424,-2.7378,-2.7375,-2.716,-2.7075,-2.6938,-2.6922,-2.6873,-2.6844,-2.686,-2.6777,-2.677,-2.6763,-2.6733,-2.6723,-2.684,-2.684,-2.6839,-2.6839,0,-2.8053,-2.7964,-2.7916,-2.7782,-2.7712,-2.7629,-2.7531,-2.7468,-2.742,-2.7348,-2.7228,-2.7124,-2.7,-2.6964,-2.6916,-2.6817,-2.6817,-2.6797,-2.679,-2.676,-2.673,-2.6718,-2.6843,-2.6842,-2.6842,-2.6841,0,0,-2.8062,-2.7884,-2.7867,-2.7802,-2.7667,-2.7594,-2.7504,-2.7387,-2.7332,-2.7234,-2.7152,-2.701,-2.6989,-2.6915,-2.6856,-2.6798,-2.6742,-2.6783,-2.6778,-2.6774,-2.662,-2.6633,-2.6622,-2.6714,-2.6711,-2.6709,-2.6628,0,-2.8011,-2.7852,-2.7776,-2.7648,-2.7561,-2.749,-2.741,-2.7316,-2.7245,-2.7156,-2.7076,-2.6975,-2.6958,-2.6912,-2.6852,-2.6763,-2.6709,-2.6768,-2.6629,-2.6625,-2.6658,-2.6607,-2.6622,-2.655,-2.6616,-2.6614,-2.6613,0,-2.793,-2.7835,-2.7699,-2.7569,-2.7529,-2.746,-2.7343,-2.7261,-2.7149,-2.71,-2.7017,-2.6958,-2.6854,-2.6857,-2.6707,-2.6748,-2.6686,-2.6633,-2.6628,-2.6609,-2.6615,-2.6581,-2.6526,-2.6514,-2.6594,-2.6596,-2.6597,0,-2.7945,-2.7782,-2.7678,-2.7626,-2.7473,-2.7424,-2.7357,-2.7247,-2.7179,-2.7074,-2.7028,-2.6912,-2.6847,-2.6755,-2.6664,-2.6676,-2.652,-2.6517,-2.6471,-2.6473,-2.6439,-2.6442,-2.6369,-2.6407,-2.6407,-2.6408,-2.6408,0,-2.7894,-2.7812,-2.7683,-2.7619,-2.7522,-2.7432,-2.7337,-2.7264,-2.7165,-2.708,-2.7011,-2.6931,-2.6818,-2.6722,-2.6649,-2.6532,-2.6504,-2.6457,-2.6438,-2.6461,-2.6466,-2.6416,-2.6417,-2.6405,-2.6405,-2.6406,-2.6406,0,-2.7895,-2.7806,-2.7687,-2.7551,-2.7514,-2.7449,-2.7329,-2.726,-2.7185,-2.7078,-2.7047,-2.6927,-2.681,-2.6711,-2.6556,-2.6506,-2.6383,-2.6363,-2.6422,-2.6411,-2.6368,-2.6372,-2.6257,-2.6234,-2.6293,-2.6293,-2.6293,0,-2.7867,-2.7803,-2.7659,-2.7599,-2.7534,-2.7438,-2.7368,-2.7274,-2.7203,-2.7067,-2.7013,-2.6891,-2.6789,-2.6604,-2.6499,-2.6378,-2.6351,-2.6319,-2.6332,-2.6355,-2.6343,-2.6346,-2.6336,-2.6317,-2.6317,-2.6317,-2.6317,0,-2.7825,-2.7782,-2.7688,-2.7574,-2.7494,-2.7399,-2.7303,-2.7256,-2.7142,-2.7065,-2.6946,-2.6867,-2.6708,-2.6585,-2.6452,-2.6375,-2.6323,-2.6314,-2.6295,-2.6316,-2.6351,-2.6325,-2.6415,-2.6316,-2.6316,-2.6316,-2.6316,-2.6316,-2.7807,-2.7744,-2.7632,-2.7526,-2.7443,-2.7353,-2.728,-2.7195,-2.7096,-2.6962,-2.691,-2.6787,-2.6667,-2.6484,-2.6406,-2.6303,-2.6296,-2.6271,-2.6264,-2.6258,-2.6258,-2.6371,-2.6279,-2.6279,-2.6279,-2.6279,-2.6279,0,-2.7757,-2.7681,-2.7584,-2.7451,-2.7365,-2.7329,-2.7218,-2.7147,-2.704,-2.6936,-2.6836,-2.6694,-2.6573,-2.6458,-2.6329,-2.6268,-2.624,-2.6237,-2.6238,-2.6219,-2.6276,-2.6302,-2.6261,-2.6261,-2.6261,-2.6261,-2.6261,-2.6261,-2.7721,-2.7611,-2.7554,-2.7398,-2.7321,-2.7202,-2.7141,-2.7054,-2.6969,-2.6816,-2.6716,-2.6643,-2.653,-2.6391,-2.6276,-2.6244,-2.6197,-2.6199,-2.616,-2.6214,-2.6217,-2.6219,-2.6243,-2.6191,-2.619,-2.6111,-2.611,-2.611]},{"header":{"parameterUnit":"m.s-1","parameterCategory":1,"la1":30.2991,"la2":30.254,"lo1":-89.0895,"lo2":-89.0444,"dy":0.0017,"dx":0.0017,"nx":28,"ny":28,"refTime":"2024-05-09T09:00:00:Z","depth":0,"parameterNumber":3,"parameterNumberName":"V-component_of_WINDS"},"data":[0,0,0,0,0,0,0,0,0,0,0,0,0,0,0,0,0,0,0,0,0,0,0,0,0,0,0,0,0,0,0,0,0,0,0,0,0,0,0,0,0,0,0,0,0,0,0,0,0,0,0,0,0,0,0,0,0,0,-5.8017,-5.8019,0,-5.8199,-5.8201,-5.8203,-5.8202,-5.8199,-5.8197,-5.8195,-5.8372,-5.8379,-5.8386,0,0,0,0,0,0,0,0,0,0,0,0,0,-5.7656,-5.7663,-5.8017,-5.8019,-5.8021,-5.8199,-5.8201,-5.8204,-5.8202,-5.8199,-5.8196,-5.8194,-5.837,-5.8378,-5.8386,0,0,0,0,0,0,0,0,0,0,0,0,0,-5.7823,-5.7665,-5.8016,-5.8042,-5.8046,-5.8198,-5.8201,-5.8204,-5.8203,-5.8199,-5.8196,-5.8192,-5.8367,-5.8377,-5.8388,-5.8523,0,0,-5.8419,-5.8424,0,0,0,0,0,0,0,0,-5.7813,-5.7836,-5.8036,-5.8041,-5.8046,-5.8174,-5.8139,-5.8311,-5.8204,-5.8143,-5.8195,-5.8191,-5.8309,-5.8324,-5.8365,-5.8531,-5.8539,-5.842,-5.8427,-5.8431,-5.8434,0,0,0,0,0,0,0,-5.7802,-5.7828,-5.8089,-5.8039,-5.8045,-5.8041,-5.8061,-5.8172,-5.8243,-5.8148,-5.8148,-5.8171,-5.831,-5.8355,-5.8369,-5.8542,-5.842,-5.8429,-5.8436,-5.844,-5.8823,-5.8827,0,0,0,0,0,0,-5.7786,-5.7819,-5.8083,-5.8094,-5.7919,-5.805,-5.8072,-5.8136,-5.8242,-5.8255,-5.8173,-5.817,-5.8339,-5.8357,-5.8376,-5.8538,-5.8431,-5.8441,-5.8447,-5.8819,-5.8824,-5.8828,0,0,0,0,0,0,-5.7779,-5.781,-5.8075,-5.7957,-5.799,-5.806,-5.8132,-5.8142,-5.8187,-5.8262,-5.8273,-5.8207,-5.8337,-5.8361,-5.8486,-5.8544,-5.8445,-5.8455,-5.8814,-5.882,-5.8826,-5.8866,0,0,0,0,0,0,-5.7768,-5.7807,-5.7862,-5.7958,-5.7997,-5.8186,-5.8136,-5.8148,-5.8206,-5.8203,-5.8296,-5.8308,-5.8336,-5.8471,-5.8496,-5.8557,-5.8463,-5.8809,-5.8817,-5.8824,-5.886,-5.8873,-5.8884,0,0,0,0,0,-5.7756,-5.7865,-5.7865,-5.7897,-5.8067,-5.819,-5.8211,-5.8245,-5.8211,-5.8264,-5.8312,-5.8305,-5.8534,-5.8483,-5.8512,-5.8577,-5.8806,-5.8815,-5.8823,-5.8854,-5.887,-5.8883,0,0,0,0,0,0,-5.7772,-5.7878,-5.7879,-5.8024,-5.8098,-5.8189,-5.8259,-5.8261,-5.8344,-5.8337,-5.8372,-5.8393,-5.8517,-5.856,-5.8501,-5.8711,-5.8665,-5.868,-5.8679,-5.8694,-5.8706,-5.8692,-5.8472,0,0,0,0,0,-5.7793,-5.7887,-5.7974,-5.8093,-5.813,-5.8188,-5.8243,-5.8262,-5.8339,-5.8369,-5.8426,-5.8498,-5.8585,-5.8642,-5.8728,-5.8866,-5.8884,-5.8925,-5.8936,-5.8946,-5.8958,-5.9029,-5.9047,-5.8857,-5.8857,-5.8857,0,0,-5.7837,-5.7906,-5.7963,-5.8098,-5.8158,-5.825,-5.8214,-5.8315,-5.8382,-5.8383,-5.8505,-5.8549,-5.8631,-5.8762,-5.8823,-5.8801,-5.9014,-5.8957,-5.8964,-5.8971,-5.904,-5.9058,-5.9074,-5.8863,-5.8862,-5.8861,0,0,-5.7963,-5.8027,-5.8132,-5.8192,-5.8284,-5.8321,-5.8346,-5.8437,-5.8466,-5.859,-5.8591,-5.867,-5.8822,-5.888,-5.8929,-5.9074,-5.9068,-5.91,-5.9161,-5.9231,-5.9246,-5.9259,-5.9307,-5.9324,-5.9112,-5.9112,-5.9112,0,-5.8004,-5.8147,-5.8184,-5.8285,-5.8342,-5.835,-5.8453,-5.8509,-5.8622,-5.8659,-5.8635,-5.8824,-5.888,-5.9023,-5.9058,-5.9099,-5.9124,-5.9089,-5.9242,-5.9255,-5.9268,-5.9314,-5.9332,-5.9115,-5.9115,-5.9115,-5.9114,0,-5.8192,-5.829,-5.8363,-5.8475,-5.854,-5.8642,-5.869,-5.8751,-5.8764,-5.8802,-5.8925,-5.8992,-5.909,-5.9125,-5.9139,-5.9269,-5.9253,-5.9235,-5.9189,-5.9289,-5.9332,-5.935,-5.912,-5.9118,-5.9118,-5.9117,0,0,-5.8333,-5.8463,-5.8489,-5.8538,-5.8639,-5.8714,-5.8813,-5.8911,-5.8961,-5.9038,-5.9119,-5.9247,-5.923,-5.9286,-5.9305,-5.9366,-5.9472,-5.934,-5.9342,-5.9359,-5.9615,-5.9626,-5.9646,-5.947,-5.9473,-5.9476,-5.9607,0,-5.8467,-5.8648,-5.8683,-5.8838,-5.8927,-5.8935,-5.9021,-5.9089,-5.9127,-5.9205,-5.9246,-5.9334,-5.9308,-5.934,-5.9402,-5.9446,-5.9523,-5.9437,-5.9541,-5.9545,-5.9518,-5.9669,-5.9682,-5.9802,-5.9624,-5.9627,-5.9629,0,-5.8648,-5.8732,-5.8897,-5.8982,-5.9021,-5.9098,-5.9189,-5.9265,-5.9341,-5.9364,-5.9425,-5.9437,-5.9535,-5.9486,-5.9621,-5.9562,-5.9606,-5.9633,-5.9639,-5.9647,-5.9591,-5.9679,-5.9841,-5.9858,-5.9657,-5.9655,-5.9653,0,-5.873,-5.8884,-5.9002,-5.9044,-5.9148,-5.9201,-5.9246,-5.9319,-5.9375,-5.9453,-5.9488,-5.9575,-5.9622,-5.9688,-5.9721,-5.9683,-5.9851,-5.9806,-5.9869,-5.9868,-5.9902,-5.9899,-6.0071,-5.9936,-5.9936,-5.9935,-5.9935,0,-5.8874,-5.8974,-5.9039,-5.9112,-5.9222,-5.9259,-5.9366,-5.9409,-5.9474,-5.9551,-5.9562,-5.9634,-5.9675,-5.9751,-5.9777,-5.9881,-5.9903,-5.9921,-5.9926,-5.9919,-5.9916,-5.9946,-5.9938,-5.994,-5.9939,-5.9938,-5.9937,0,-5.8984,-5.9033,-5.9161,-5.9249,-5.9273,-5.935,-5.9423,-5.9491,-5.9529,-5.9626,-5.9651,-5.9709,-5.9799,-5.9839,-5.995,-5.9967,-6.0085,-6.0086,-6.006,-6.0061,-6.0121,-6.0113,-6.0316,-6.0342,-6.0192,-6.0194,-6.0195,0,-5.9071,-5.9148,-5.9245,-5.9299,-5.9346,-5.9433,-5.949,-5.9529,-5.9586,-5.9678,-5.9733,-5.9824,-5.9899,-6.0041,-6.009,-6.0174,-6.0174,-6.024,-6.0187,-6.0175,-6.0171,-6.0165,-6.017,-6.0248,-6.025,-6.0251,-6.0252,0,-5.922,-5.924,-5.9324,-5.9415,-5.9483,-5.9556,-5.9627,-5.967,-5.9718,-5.9782,-5.9876,-5.9934,-6.0047,-6.0135,-6.0221,-6.0263,-6.0264,-6.0268,-6.0287,-6.0278,-6.0259,-6.0266,-6.0083,-6.0263,-6.0262,-6.0261,-6.026,-6.026,-5.9319,-5.9386,-5.9465,-5.9556,-5.9614,-5.968,-5.9747,-5.9794,-5.9874,-5.9971,-5.9987,-6.0086,-6.0155,-6.0272,-6.0317,-6.0391,-6.0375,-6.0402,-6.0409,-6.0414,-6.0416,-6.025,-6.0407,-6.0407,-6.0407,-6.0407,-6.0406,0,-5.9465,-5.9516,-5.96,-5.97,-5.9771,-5.977,-5.9847,-5.9905,-5.9993,-6.006,-6.0133,-6.0238,-6.0323,-6.0379,-6.0464,-6.0513,-6.0515,-6.0533,-6.0528,-6.0537,-6.0428,-6.0402,-6.053,-6.053,-6.053,-6.053,-6.053,-6.053,-5.9549,-5.9662,-5.9691,-5.9831,-5.988,-5.9979,-6.0023,-6.0082,-6.0135,-6.0253,-6.0325,-6.0362,-6.0423,-6.0512,-6.0589,-6.0603,-6.0631,-6.065,-6.0662,-6.0558,-6.0545,-6.0533,-6.0509,-6.0657,-6.0657,-6.0765,-6.0766,-6.0767]}]]